Time,TemperatureF,DewpointF,PressureIn,WindDirection,WindDirectionDegrees,WindSpeedMPH,WindSpeedGustMPH,Humidity,HourlyPrecipIn,Conditions,Clouds,dailyrainin,SolarRadiationWatts/m^2,SoftwareType,DateUTC
2013-12-19 00:02:00,35.0,32.0,-100.00,NNW,343,6.0,10.0,89,0.00,,,0.03,0.000000,,2013-12-19 08:02:00,
2013-12-19 00:42:00,34.0,29.0,-100.00,NNW,343,5.0,11.0,81,0.00,,,0.03,0.000000,,2013-12-19 08:42:00,
2013-12-19 00:52:00,34.0,29.0,-100.00,NNW,343,5.0,11.0,81,0.00,,,0.03,0.000000,,2013-12-19 08:52:00,
2013-12-19 01:02:00,34.0,29.0,-100.00,NNW,343,5.0,11.0,81,0.00,,,0.03,0.000000,,2013-12-19 09:02:00,
2013-12-19 01:43:00,34.0,28.0,-100.00,NNW,347,3.0,10.0,77,0.00,,,0.03,0.000000,,2013-12-19 09:43:00,
2013-12-19 01:54:00,34.0,28.0,-100.00,NNW,347,3.0,10.0,77,0.00,,,0.03,0.000000,,2013-12-19 09:54:00,
2013-12-19 02:03:00,34.0,28.0,-100.00,NNW,347,3.0,10.0,77,0.00,,,0.03,0.000000,,2013-12-19 10:03:00,
2013-12-19 02:43:00,35.0,28.0,-100.00,North,353,3.0,10.0,75,0.00,,,0.03,0.000000,,2013-12-19 10:43:00,
2013-12-19 02:53:00,35.0,28.0,-100.00,North,353,3.0,10.0,75,0.00,,,0.03,0.000000,,2013-12-19 10:53:00,
2013-12-19 03:02:00,35.0,28.0,-100.00,North,353,3.0,10.0,75,0.00,,,0.03,0.000000,,2013-12-19 11:02:00,
2013-12-19 03:42:00,34.0,28.0,-100.00,North,353,2.0,7.0,77,0.00,,,0.03,0.000000,,2013-12-19 11:42:00,
2013-12-19 03:53:00,34.0,28.0,-100.00,North,353,2.0,7.0,77,0.00,,,0.03,0.000000,,2013-12-19 11:53:00,
2013-12-19 04:02:00,34.0,28.0,-100.00,North,353,2.0,7.0,77,0.00,,,0.03,0.000000,,2013-12-19 12:02:00,
2013-12-19 04:42:00,34.0,28.0,-100.00,NNW,348,2.0,6.0,77,0.00,,,0.03,0.000000,,2013-12-19 12:42:00,
2013-12-19 04:52:00,34.0,28.0,-100.00,NNW,348,2.0,6.0,77,0.00,,,0.03,0.000000,,2013-12-19 12:52:00,
2013-12-19 05:02:00,34.0,28.0,-100.00,NNW,348,2.0,6.0,77,0.00,,,0.03,0.000000,,2013-12-19 13:02:00,
2013-12-19 05:42:00,33.0,27.0,-100.00,NNE,18,4.0,10.0,78,0.00,,,0.03,0.000000,,2013-12-19 13:42:00,
2013-12-19 05:52:00,33.0,27.0,-100.00,NNE,18,4.0,10.0,78,0.00,,,0.03,0.000000,,2013-12-19 13:52:00,
2013-12-19 06:02:00,33.0,27.0,-100.00,NNE,18,4.0,10.0,78,0.00,,,0.03,0.000000,,2013-12-19 14:02:00,
2013-12-19 06:42:00,33.0,26.0,-100.00,East,88,5.0,8.0,74,0.00,,,0.03,0.000000,,2013-12-19 14:42:00,
2013-12-19 06:52:00,33.0,26.0,-100.00,East,88,5.0,8.0,74,0.00,,,0.03,0.000000,,2013-12-19 14:52:00,
2013-12-19 07:02:00,33.0,26.0,-100.00,East,88,5.0,8.0,74,0.00,,,0.03,0.000000,,2013-12-19 15:02:00,
2013-12-19 07:43:00,32.0,26.0,-100.00,SE,134,5.0,15.0,79,0.00,,,0.03,0.000000,,2013-12-19 15:43:00,
2013-12-19 07:54:00,32.0,26.0,-100.00,SE,134,5.0,15.0,79,0.00,,,0.03,0.000000,,2013-12-19 15:54:00,
2013-12-19 08:03:00,32.0,26.0,-100.00,SE,134,5.0,15.0,79,0.00,,,0.03,0.000000,,2013-12-19 16:03:00,
2013-12-19 08:42:00,32.0,27.0,-100.00,SE,139,6.0,14.0,80,0.00,,,0.03,7.000000,,2013-12-19 16:42:00,
2013-12-19 08:53:00,32.0,27.0,-100.00,SE,139,6.0,14.0,80,0.00,,,0.03,7.000000,,2013-12-19 16:53:00,
2013-12-19 09:02:00,32.0,27.0,-100.00,SE,139,6.0,14.0,80,0.00,,,0.03,7.000000,,2013-12-19 17:02:00,
2013-12-19 09:42:00,33.0,28.0,-100.00,South,170,6.0,11.0,82,0.00,,,0.03,61.000000,,2013-12-19 17:42:00,
2013-12-19 09:52:00,33.0,28.0,-100.00,South,170,6.0,11.0,82,0.00,,,0.03,61.000000,,2013-12-19 17:52:00,
2013-12-19 10:02:00,33.0,28.0,-100.00,South,170,6.0,11.0,82,0.00,,,0.03,61.000000,,2013-12-19 18:02:00,
2013-12-19 10:42:00,34.0,29.0,-100.00,South,177,5.0,9.0,81,0.00,,,0.03,90.000000,,2013-12-19 18:42:00,
2013-12-19 10:52:00,34.0,29.0,-100.00,South,177,5.0,9.0,81,0.00,,,0.03,90.000000,,2013-12-19 18:52:00,
2013-12-19 11:01:00,34.0,29.0,-100.00,South,177,5.0,9.0,81,0.00,,,0.03,90.000000,,2013-12-19 19:01:00,
2013-12-19 11:42:00,33.0,28.0,-100.00,South,185,3.0,8.0,82,0.00,,,0.02,110.000000,,2013-12-19 19:42:00,
2013-12-19 11:52:00,33.0,28.0,-100.00,South,185,3.0,8.0,82,0.00,,,0.02,110.000000,,2013-12-19 19:52:00,
2013-12-19 12:01:00,33.0,28.0,-100.00,South,185,3.0,8.0,82,0.00,,,0.02,110.000000,,2013-12-19 20:01:00,
2013-12-19 12:42:00,34.0,30.0,-100.00,South,178,4.0,9.0,84,0.00,,,0.02,84.000000,,2013-12-19 20:42:00,
2013-12-19 12:52:00,34.0,30.0,-100.00,South,178,4.0,9.0,84,0.00,,,0.02,84.000000,,2013-12-19 20:52:00,
2013-12-19 13:02:00,34.0,30.0,-100.00,South,178,4.0,9.0,84,0.00,,,0.02,84.000000,,2013-12-19 21:02:00,
2013-12-19 13:43:00,39.0,30.0,-100.00,NNW,336,2.0,5.0,69,0.00,,,0.02,360.000000,,2013-12-19 21:43:00,
2013-12-19 13:53:00,39.0,30.0,-100.00,NNW,336,2.0,5.0,69,0.00,,,0.02,360.000000,,2013-12-19 21:53:00,
2013-12-19 14:02:00,39.0,30.0,-100.00,NNW,336,2.0,5.0,69,0.00,,,0.02,360.000000,,2013-12-19 22:02:00,
2013-12-19 14:43:00,40.0,31.0,-100.00,East,85,1.0,4.0,69,0.00,,,0.02,287.000000,,2013-12-19 22:43:00,
2013-12-19 14:53:00,40.0,31.0,-100.00,East,85,1.0,4.0,69,0.00,,,0.02,287.000000,,2013-12-19 22:53:00,
2013-12-19 15:03:00,40.0,31.0,-100.00,East,85,1.0,4.0,69,0.00,,,0.02,287.000000,,2013-12-19 23:03:00,
2013-12-19 15:42:00,37.0,30.0,-100.00,NNW,346,2.0,4.0,77,0.00,,,0.02,166.000000,,2013-12-19 23:42:00,
2013-12-19 15:53:00,37.0,30.0,-100.00,NNW,346,2.0,4.0,77,0.00,,,0.02,166.000000,,2013-12-19 23:53:00,
2013-12-19 16:02:00,37.0,30.0,-100.00,NNW,346,2.0,4.0,77,0.00,,,0.02,166.000000,,2013-12-20 00:02:00,
2013-12-19 16:42:00,35.0,31.0,-100.00,SE,143,3.0,5.0,84,0.00,,,0.02,59.000000,,2013-12-20 00:42:00,
2013-12-19 16:52:00,35.0,31.0,-100.00,SE,143,3.0,5.0,84,0.00,,,0.02,59.000000,,2013-12-20 00:52:00,
2013-12-19 17:01:00,35.0,31.0,-100.00,SE,143,3.0,5.0,84,0.00,,,0.02,59.000000,,2013-12-20 01:01:00,
2013-12-19 17:42:00,33.0,30.0,-100.00,South,176,7.0,10.0,88,0.00,,,0.01,10.000000,,2013-12-20 01:42:00,
2013-12-19 17:52:00,33.0,30.0,-100.00,South,176,7.0,10.0,88,0.00,,,0.01,10.000000,,2013-12-20 01:52:00,
2013-12-19 18:01:00,33.0,30.0,-100.00,South,176,7.0,10.0,88,0.00,,,0.01,10.000000,,2013-12-20 02:01:00,
2013-12-19 18:42:00,31.0,29.0,-100.00,South,179,9.0,12.0,92,0.00,,,0.00,0.000000,,2013-12-20 02:42:00,
2013-12-19 18:52:00,31.0,29.0,-100.00,South,179,9.0,12.0,92,0.00,,,0.00,0.000000,,2013-12-20 02:52:00,
2013-12-19 19:02:00,31.0,29.0,-100.00,South,179,9.0,12.0,92,0.00,,,0.00,0.000000,,2013-12-20 03:02:00,
2013-12-19 19:44:00,30.0,28.0,-100.00,South,175,9.0,11.0,93,0.00,,,0.00,0.000000,,2013-12-20 03:44:00,
2013-12-19 19:53:00,30.0,28.0,-100.00,South,175,9.0,11.0,93,0.00,,,0.00,0.000000,,2013-12-20 03:53:00,
2013-12-19 20:02:00,30.0,28.0,-100.00,South,175,9.0,11.0,93,0.00,,,0.00,0.000000,,2013-12-20 04:02:00,
2013-12-19 20:43:00,30.0,28.0,-100.00,South,176,10.0,13.0,94,0.00,,,0.00,0.000000,,2013-12-20 04:43:00,
2013-12-19 20:53:00,30.0,28.0,-100.00,South,176,10.0,13.0,94,0.00,,,0.00,0.000000,,2013-12-20 04:53:00,
2013-12-19 21:03:00,30.0,28.0,-100.00,South,176,10.0,13.0,94,0.00,,,0.00,0.000000,,2013-12-20 05:03:00,
2013-12-19 21:43:00,29.0,27.0,-100.00,South,175,10.0,13.0,94,0.00,,,0.00,0.000000,,2013-12-20 05:43:00,
2013-12-19 21:53:00,29.0,27.0,-100.00,South,175,10.0,13.0,94,0.00,,,0.00,0.000000,,2013-12-20 05:53:00,
2013-12-19 22:02:00,29.0,27.0,-100.00,South,175,10.0,13.0,94,0.00,,,0.00,0.000000,,2013-12-20 06:02:00,
2013-12-19 22:43:00,29.0,27.0,-100.00,South,177,11.0,14.0,94,0.00,,,0.00,0.000000,,2013-12-20 06:43:00,
2013-12-19 22:52:00,29.0,27.0,-100.00,South,177,11.0,14.0,94,0.00,,,0.00,0.000000,,2013-12-20 06:52:00,
2013-12-19 23:02:00,29.0,27.0,-100.00,South,177,11.0,14.0,94,0.00,,,0.00,0.000000,,2013-12-20 07:02:00,
2013-12-19 23:43:00,29.0,27.0,-100.00,South,174,10.0,14.0,94,0.00,,,0.00,0.000000,,2013-12-20 07:43:00,
2013-12-19 23:52:00,29.0,27.0,-100.00,South,174,10.0,14.0,94,0.00,,,0.00,0.000000,,2013-12-20 07:52:00,